[[{"header":{"parameterUnit":"m.s-1","parameterCategory":1,"la1":30.2991,"la2":30.254,"lo1":-89.0895,"lo2":-89.0444,"dy":0.0017,"dx":0.0017,"nx":28,"ny":28,"refTime":"2025-02-27T03:00:00:Z","depth":0,"parameterNumber":2,"parameterNumberName":"U-component_of_WINDS"},"data":[0,0,0,0,0,0,0,0,0,0,0,0,0,0,0,0,0,0,0,0,0,0,0,0,0,0,0,0,0,0,0,0,0,0,0,0,0,0,0,0,0,0,0,0,0,0,0,0,0,0,0,0,0,0,0,0,0,0,1.0962,1.0964,0,1.1087,1.1089,1.109,1.1136,1.1135,1.1135,1.1134,1.1265,1.1269,1.1273,0,0,0,0,0,0,0,0,0,0,0,0,0,1.0763,1.0767,1.0962,1.0964,1.0965,1.1087,1.1089,1.1091,1.1136,1.1135,1.1135,1.1134,1.1264,1.1269,1.1273,0,0,0,0,0,0,0,0,0,0,0,0,0,1.0865,1.0768,1.0962,1.1002,1.1007,1.1087,1.1089,1.1091,1.1136,1.1135,1.1135,1.1134,1.1263,1.1268,1.1274,1.1323,0,0,1.1292,1.1295,0,0,0,0,0,0,0,0,1.0859,1.0873,1.0995,1.1,1.1005,1.1095,1.1067,1.1169,1.1136,1.1087,1.1134,1.1134,1.121,1.122,1.1245,1.133,1.1335,1.1293,1.1296,1.1299,1.13,0,0,0,0,0,0,0,1.0852,1.0867,1.1012,1.0997,1.1003,1.1015,1.1029,1.1087,1.1151,1.1091,1.1095,1.1109,1.1212,1.1239,1.1248,1.1337,1.1292,1.1298,1.1301,1.1303,1.1468,1.1469,0,0,0,0,0,0,1.0838,1.0861,1.1008,1.1016,1.0929,1.1019,1.1034,1.1067,1.115,1.1162,1.1109,1.1111,1.1229,1.1241,1.1253,1.1316,1.1299,1.1304,1.1307,1.1467,1.1468,1.1469,0,0,0,0,0,0,1.0834,1.0851,1.1003,1.0939,1.096,1.1023,1.1059,1.107,1.1097,1.1164,1.1176,1.1125,1.1229,1.1245,1.1305,1.1321,1.1307,1.1312,1.1466,1.1468,1.1469,1.1443,0,0,0,0,0,0,1.0828,1.0849,1.0868,1.0939,1.0963,1.1052,1.106,1.1073,1.1106,1.1109,1.1181,1.1193,1.123,1.1296,1.1311,1.1329,1.1317,1.1465,1.1467,1.1468,1.1442,1.1443,1.1443,0,0,0,0,0,1.0821,1.0857,1.0869,1.0886,1.0988,1.1053,1.1067,1.1108,1.1107,1.1127,1.117,1.119,1.1317,1.1302,1.1319,1.1339,1.1464,1.1466,1.1468,1.1442,1.1443,1.1443,0,0,0,0,0,0,1.0787,1.0867,1.0881,1.0941,1.099,1.1061,1.1087,1.1107,1.1158,1.1159,1.1209,1.1225,1.1281,1.1316,1.1298,1.1391,1.1392,1.1397,1.1366,1.1367,1.1368,1.1359,1.1321,0,0,0,0,0,1.0786,1.0832,1.0899,1.0946,1.0969,1.1024,1.1054,1.1081,1.1134,1.1155,1.1203,1.1254,1.1305,1.1338,1.1389,1.1447,1.1464,1.1469,1.147,1.147,1.1474,1.1507,1.151,1.1476,1.1476,1.1476,0,0,1.0785,1.0835,1.0861,1.094,1.0981,1.1028,1.1041,1.109,1.1125,1.1163,1.1223,1.1259,1.132,1.1379,1.1408,1.141,1.1487,1.1472,1.1472,1.1476,1.1509,1.1513,1.1516,1.1477,1.1477,1.1477,0,0,1.0808,1.085,1.0893,1.0933,1.0995,1.1031,1.1041,1.1108,1.1134,1.1194,1.1223,1.1266,1.1353,1.1395,1.1427,1.1464,1.1485,1.1479,1.1482,1.1514,1.1516,1.1519,1.1532,1.1536,1.1483,1.1483,1.1483,0,1.08,1.0871,1.0913,1.096,1.0994,1.1029,1.1073,1.111,1.1185,1.1208,1.1209,1.1319,1.1362,1.1431,1.144,1.1465,1.1478,1.1472,1.1512,1.1516,1.1519,1.1532,1.1537,1.1482,1.1482,1.1482,1.1482,0,1.0858,1.0907,1.0934,1.1004,1.1041,1.1087,1.1136,1.1168,1.1192,1.1227,1.1288,1.1341,1.1403,1.1421,1.1445,1.1494,1.1493,1.1502,1.1505,1.152,1.1533,1.1539,1.1481,1.1481,1.1481,1.1482,0,0,1.0865,1.0956,1.0966,1.0998,1.1067,1.1106,1.1153,1.1212,1.1239,1.1289,1.133,1.1402,1.1411,1.1447,1.1476,1.1504,1.1529,1.151,1.1512,1.1512,1.1586,1.1579,1.1584,1.1543,1.1544,1.1545,1.1581,0,1.0897,1.0981,1.102,1.1087,1.1132,1.1165,1.1206,1.1253,1.1287,1.1331,1.1369,1.1419,1.1427,1.145,1.1478,1.152,1.1545,1.1518,1.1582,1.1583,1.1566,1.1591,1.1584,1.1616,1.1586,1.1587,1.1588,0,1.0946,1.0995,1.1067,1.113,1.1151,1.1187,1.1244,1.1285,1.1339,1.1362,1.1402,1.1429,1.148,1.1477,1.1547,1.1528,1.1556,1.158,1.1583,1.1591,1.1587,1.16,1.1627,1.1632,1.1597,1.1596,1.1595,0,1.0944,1.1028,1.1082,1.1108,1.1183,1.1208,1.124,1.1293,1.1326,1.1376,1.1398,1.1453,1.1484,1.1526,1.1567,1.1562,1.1634,1.1635,1.1655,1.1653,1.1669,1.1668,1.1701,1.1686,1.1686,1.1686,1.1686,0,1.0977,1.1019,1.1082,1.1115,1.1163,1.1207,1.1254,1.1289,1.1335,1.1376,1.1408,1.1445,1.1497,1.1542,1.1574,1.1627,1.1641,1.1661,1.167,1.1659,1.1656,1.1679,1.1678,1.1687,1.1687,1.1687,1.1686,0,1.0983,1.1027,1.1087,1.1153,1.117,1.1203,1.1259,1.1293,1.1328,1.1379,1.1393,1.1448,1.1502,1.1547,1.1617,1.1639,1.1694,1.1704,1.1676,1.1681,1.1698,1.1696,1.1747,1.1756,1.1734,1.1734,1.1735,0,1.1002,1.1035,1.1104,1.1133,1.1164,1.1211,1.1244,1.1288,1.1321,1.1384,1.141,1.1465,1.1512,1.1596,1.1643,1.1697,1.1708,1.1722,1.1717,1.1704,1.1709,1.1706,1.171,1.1723,1.1723,1.1723,1.1723,0,1.1029,1.1049,1.1095,1.1149,1.1188,1.1232,1.1278,1.13,1.1352,1.1388,1.1442,1.1478,1.1549,1.1604,1.1663,1.1697,1.1719,1.1724,1.1732,1.1721,1.1704,1.1714,1.1677,1.1723,1.1723,1.1723,1.1723,1.1723,1.1043,1.1074,1.1127,1.1177,1.1216,1.1257,1.1291,1.133,1.1376,1.1437,1.146,1.1515,1.1568,1.1648,1.1682,1.1727,1.173,1.1741,1.1743,1.1746,1.1744,1.1696,1.1737,1.1737,1.1738,1.1738,1.1738,0,1.1073,1.1108,1.1154,1.1216,1.1256,1.1271,1.1322,1.1354,1.1403,1.1449,1.1494,1.1556,1.1609,1.1659,1.1714,1.174,1.1751,1.1753,1.1752,1.176,1.1738,1.1726,1.1743,1.1743,1.1743,1.1743,1.1743,1.1743,1.1093,1.1146,1.1171,1.1244,1.1279,1.1333,1.1361,1.1399,1.1436,1.1504,1.1548,1.1579,1.1628,1.1686,1.1735,1.1749,1.1768,1.1767,1.1783,1.1762,1.1761,1.176,1.1749,1.1771,1.1771,1.1801,1.1801,1.1801]},{"header":{"parameterUnit":"m.s-1","parameterCategory":1,"la1":30.2991,"la2":30.254,"lo1":-89.0895,"lo2":-89.0444,"dy":0.0017,"dx":0.0017,"nx":28,"ny":28,"refTime":"2025-02-27T03:00:00:Z","depth":0,"parameterNumber":3,"parameterNumberName":"V-component_of_WINDS"},"data":[0,0,0,0,0,0,0,0,0,0,0,0,0,0,0,0,0,0,0,0,0,0,0,0,0,0,0,0,0,0,0,0,0,0,0,0,0,0,0,0,0,0,0,0,0,0,0,0,0,0,0,0,0,0,0,0,0,0,2.7837,2.7836,0,2.776,2.7759,2.7758,2.7782,2.7784,2.7786,2.7787,2.7701,2.7697,2.7693,0,0,0,0,0,0,0,0,0,0,0,0,0,2.7998,2.7995,2.7837,2.7836,2.7835,2.776,2.7759,2.7758,2.7782,2.7784,2.7786,2.7788,2.7702,2.7698,2.7693,0,0,0,0,0,0,0,0,0,0,0,0,0,2.7925,2.7994,2.7837,2.7838,2.7837,2.7761,2.7759,2.7758,2.7782,2.7784,2.7786,2.7789,2.7704,2.7698,2.7692,2.7608,0,0,2.7675,2.7672,0,0,0,0,0,0,0,0,2.7929,2.7919,2.7839,2.7838,2.7837,2.7784,2.7784,2.7707,2.7781,2.7802,2.7787,2.779,2.7726,2.7718,2.7698,2.7604,2.76,2.7674,2.7671,2.7668,2.7667,0,0,0,0,0,0,0,2.7934,2.7922,2.7806,2.7838,2.7837,2.784,2.7833,2.777,2.7751,2.7801,2.7802,2.7793,2.7726,2.7704,2.7697,2.7599,2.7674,2.7669,2.7666,2.7664,2.7431,2.7429,0,0,0,0,0,0,2.7941,2.7926,2.7809,2.7804,2.789,2.7835,2.7827,2.7798,2.7752,2.7747,2.7791,2.7795,2.7712,2.7703,2.7694,2.7592,2.7668,2.7663,2.766,2.7434,2.7431,2.7428,0,0,0,0,0,0,2.7944,2.793,2.7812,2.7866,2.7851,2.783,2.7797,2.7795,2.7774,2.7745,2.7741,2.7773,2.7714,2.7702,2.763,2.7589,2.766,2.7655,2.7437,2.7433,2.7429,2.7388,0,0,0,0,0,0,2.7949,2.7931,2.79,2.7865,2.7848,2.7751,2.7795,2.7792,2.7764,2.7768,2.7726,2.7722,2.7715,2.7638,2.7624,2.7583,2.7651,2.7441,2.7435,2.7431,2.7393,2.7383,2.7375,0,0,0,0,0,2.7954,2.789,2.7898,2.7884,2.7809,2.7749,2.7739,2.7734,2.7761,2.7729,2.7711,2.7723,2.7596,2.763,2.7615,2.7571,2.7443,2.7437,2.7431,2.7397,2.7385,2.7375,0,0,0,0,0,0,2.7917,2.7885,2.7894,2.7817,2.7786,2.7753,2.7712,2.7722,2.768,2.7685,2.7679,2.767,2.7596,2.7576,2.7615,2.7487,2.7523,2.7514,2.7503,2.7491,2.7482,2.7489,2.7646,0,0,0,0,0,2.7901,2.7856,2.783,2.7764,2.7748,2.7733,2.7706,2.7706,2.7672,2.7658,2.7635,2.76,2.7552,2.7521,2.7475,2.739,2.7381,2.7353,2.7344,2.7336,2.7328,2.7282,2.7269,2.7408,2.7408,2.7408,0,0,2.7865,2.7842,2.7813,2.7756,2.7732,2.7684,2.7721,2.7669,2.7633,2.7649,2.7581,2.7563,2.7523,2.7445,2.7409,2.7426,2.7288,2.7328,2.7323,2.7318,2.7275,2.7262,2.725,2.7403,2.7404,2.7405,0,0,2.7775,2.7754,2.7697,2.7673,2.7637,2.7628,2.7614,2.758,2.757,2.7501,2.7513,2.7469,2.7387,2.7359,2.7334,2.7236,2.7245,2.7221,2.7173,2.7128,2.7117,2.7108,2.7073,2.7061,2.7212,2.7212,2.7212,0,2.7734,2.7666,2.7666,2.7614,2.7588,2.7604,2.7545,2.7521,2.7471,2.7452,2.7472,2.7371,2.7345,2.7261,2.7237,2.7216,2.72,2.7225,2.712,2.711,2.7101,2.7067,2.7054,2.721,2.721,2.721,2.721,0,2.7618,2.757,2.7528,2.7483,2.7452,2.7397,2.7387,2.7356,2.7358,2.7346,2.7276,2.7247,2.7196,2.7176,2.7176,2.7091,2.7104,2.7122,2.7158,2.7085,2.7054,2.7041,2.7206,2.7207,2.7207,2.7208,0,0,2.7501,2.7459,2.7444,2.7424,2.7387,2.7348,2.7294,2.7247,2.722,2.7185,2.7139,2.707,2.7087,2.7059,2.7056,2.7017,2.6942,2.704,2.7039,2.7023,2.6847,2.6834,2.6819,2.6949,2.6947,2.6945,2.6851,0,2.7409,2.7317,2.7316,2.7229,2.7185,2.72,2.7152,2.7123,2.711,2.7069,2.7054,2.7006,2.7032,2.7016,2.6978,2.696,2.6907,2.6966,2.6904,2.6902,2.6914,2.6803,2.6788,2.6701,2.6838,2.6836,2.6835,0,2.7289,2.7254,2.7164,2.7135,2.7116,2.7073,2.7031,2.6992,2.6959,2.6953,2.6922,2.6926,2.6869,2.6907,2.6828,2.6868,2.6843,2.683,2.6827,2.682,2.6864,2.6794,2.6673,2.666,2.6815,2.6817,2.6818,0,2.7214,2.7144,2.7082,2.7064,2.7028,2.6998,2.6981,2.695,2.6923,2.6885,2.6867,2.6822,2.6797,2.6761,2.6753,2.6781,2.6673,2.6711,2.6665,2.6665,2.6641,2.6643,2.6515,2.6624,2.6625,2.6625,2.6625,0,2.7111,2.7056,2.7048,2.7009,2.6947,2.6946,2.6884,2.6869,2.6842,2.68,2.6809,2.6768,2.6759,2.6716,2.6709,2.6644,2.6633,2.6625,2.6624,2.6624,2.6625,2.6607,2.6613,2.6621,2.6622,2.6623,2.6624,0,2.7017,2.7009,2.6942,2.6915,2.6906,2.6862,2.6837,2.68,2.6789,2.6735,2.6722,2.6705,2.6655,2.6643,2.6583,2.6578,2.6502,2.6506,2.6514,2.6514,2.647,2.6474,2.6326,2.6307,2.6429,2.6427,2.6426,0,2.6952,2.691,2.6879,2.6853,2.6835,2.6792,2.6765,2.6762,2.6733,2.6694,2.6661,2.6613,2.6574,2.6494,2.6474,2.6428,2.6432,2.6383,2.6425,2.6427,2.6431,2.6434,2.643,2.6375,2.6374,2.6372,2.6372,0,2.6837,2.6836,2.6798,2.6759,2.6728,2.6696,2.6666,2.6643,2.6636,2.6602,2.6554,2.6524,2.6465,2.6417,2.6371,2.6351,2.636,2.6359,2.6346,2.6346,2.6353,2.6349,2.6493,2.6362,2.6363,2.6364,2.6364,2.6365,2.6755,2.6719,2.6693,2.665,2.6628,2.66,2.6564,2.6551,2.6511,2.6464,2.6464,2.6411,2.6379,2.6319,2.6297,2.6254,2.6269,2.625,2.6245,2.6241,2.6237,2.636,2.6246,2.6246,2.6246,2.6246,2.6246,0,2.6642,2.6626,2.6587,2.6547,2.6513,2.6527,2.6495,2.6465,2.6419,2.6391,2.6354,2.6298,2.6252,2.6229,2.6184,2.6153,2.6156,2.6141,2.6143,2.6139,2.6226,2.6242,2.614,2.614,2.614,2.614,2.614,2.614,2.6579,2.6519,2.6515,2.6445,2.6429,2.6379,2.6359,2.6333,2.6311,2.6249,2.6212,2.6199,2.6172,2.6125,2.6083,2.6078,2.606,2.6044,2.604,2.6122,2.6133,2.6143,2.6158,2.604,2.604,2.5956,2.5956,2.5955]}]]